This demonstration page uses our WeatherBlox Daily Observations layout. Learn more.

Left ArrowRight Arrow

36.19886, -115.1175

Hourly Observations for July 30, 2021

Temp ( °F °C ) Dew Point ( °F °C ) Humidity (%) Winds ( mph kmh ) Pressure ( in mb ) Visibility ( mi km ) Precip ( " mm )
12:53 am 00:53 Clear 84 28.9 64 17.8 51 51 SW 6 9 29.95 1014 10 16 N/A
1:53 am 01:53 Partly Cloudy 84 28.9 63 17.2 49 49 W 8 13 29.93 1013 10 16 N/A
2:53 am 02:53 Clear 85 29.4 61 16.1 45 45 SW 3 6 29.91 1013 10 16 N/A
3:53 am 03:53 Clear 82 27.8 67 19.4 60 60 E 5 7 29.92 1013 10 16 N/A
4:53 am 04:53 Clear 84 28.9 63 17.2 49 49 N 6 9 29.93 1014 10 16 N/A
5:53 am 05:53 Sunny 82 27.8 64 17.8 55 55 NNW 6 9 29.94 1014 10 16 N/A
6:53 am 06:53 Sunny 83 28.3 64 17.8 53 53 N N/A 29.96 1014 10 16 N/A
7:53 am 07:53 Sunny 84 28.9 64 17.8 51 51 SSW 3 6 30.00 1016 10 16 N/A
8:53 am 08:53 Partly Cloudy 84 28.9 64 17.8 51 51 N N/A 30.01 1016 10 16 N/A
9:53 am 09:53 Sunny 85 29.4 63 17.2 48 48 N N/A 30.01 1016 10 16 N/A
10:53 am 10:53 Sunny 88 31.1 64 17.8 45 45 N N/A 30.01 1016 10 16 N/A
11:53 am 11:53 Sunny 90 32.2 61 16.1 38 38 N N/A 29.99 1016 10 16 N/A
12:53 pm 12:53 Sunny 93 33.9 61 16.1 34 34 VRB 7 11 29.97 1015 10 16 N/A
1:53 pm 13:53 Sunny 93 33.9 59 15 32 32 SW 7 11 29.95 1014 10 16 N/A
2:53 pm 14:53 Sunny 96 35.6 60 15.6 30 30 E 6 9 29.93 1013 10 16 N/A
3:53 pm 15:53 Sunny 96 35.6 60 15.6 30 30 SSE 9 15 29.92 1013 10 16 N/A
4:22 pm 16:22 Partly Cloudy 94 34.4 58 14.4 30 30 WSW 17 28 29.77 1008 10 16 N/A
4:53 pm 16:53 Sunny 94 34.4 57 13.9 29 29 SSW 14 22 29.91 1013 10 16 N/A
5:53 pm 17:53 Sunny 93 33.9 57 13.9 30 30 SSE 13 20 29.91 1013 10 16 N/A
6:53 pm 18:53 Sunny 92 33.3 58 14.4 32 32 SSE 8 13 29.93 1014 10 16 N/A
7:53 pm 19:53 Mostly Clear 90 32.2 58 14.4 34 34 S 8 13 29.94 1014 10 16 N/A
8:53 pm 20:53 Clear 89 31.7 60 15.6 38 38 N N/A 29.96 1015 10 16 N/A
9:53 pm 21:53 Clear 89 31.7 60 15.6 38 38 N N/A 29.96 1015 10 16 N/A
10:53 pm 22:53 Clear 86 30 62 16.7 45 45 E 3 6 29.97 1015 10 16 N/A
11:53 pm 23:53 Mostly Clear 88 31.1 61 16.1 40 40 N 3 6 29.97 1015 10 16 N/A

Powered by AerisWeather